Midland Airpark, TX

6:00 AM CDT on October 20, 2017 (GMT -0500)
Midland

Weather History for KMDD - June, 2012

Change the Weather History Date:

Thursday, June 21, 2012

  Actual Average (KMAF) Record (KMAF)
Temperature  
Mean Temperature 84 °F -  
Max Temperature 95 °F 91 °F 107 °F (1934)
Min Temperature 73 °F 67 °F 53 °F (1973)
Cooling Degree Days 19    
Growing Degree Days 34 (Base 50)    
Moisture  
Dew Point 59 °F    
Average Humidity 45    
Maximum Humidity 75    
Minimum Humidity 23    
Precipitation  
Precipitation 0.00 in - - ()
Sea Level Pressure  
Sea Level Pressure 30.03 in    
Wind  
Wind Speed 12 mph (SE)    
Max Wind Speed 29 mph    
Max Gust Speed 40 mph    
Visibility 10 miles    
Events Rain , Thunderstorm    
Averages and records for this station are not official NWS values.
T = Trace of Precipitation, MM = Missing Value Source: NWS Daily Summary

Daily Weather History Graph

Daily Weather History Graph

Search for Another Location

Airport or City:

Trip Planner

Search our weather history database for the weather conditions in past years. The results will help you decide how hot, cold, wet, or windy it might be!

Date:

Astronomy

Jun. 21, 2012 Rise Set
Actual Time 6:42 AM CDT 8:57 PM CDT
Civil Twilight 6:14 AM CDT 9:26 PM CDT
Nautical Twilight 5:39 AM CDT 10:00 PM CDT
Astronomical Twilight 5:02 AM CDT 10:38 PM CDT
Moon 8:36 AM CDT (6/21) 10:30 PM CDT (6/21)
Length of Visible Light 15h 11m
Length of Day
14h 14m
Waxing Crescent, 4% of the Moon is Illuminated
Jun 21
Waxing Crescent
Jun 26
First Quarter
Jul 3
Full
Jul 10
Last Quarter
Jul 18
New

Hourly Weather History & Observations

Time (CDT) Temp. Heat Index Dew Point Humidity Pressure Visibility Wind Dir Wind Speed Gust Speed Precip Events Conditions
12:15 AM 84.9 °F 83.6 °F 55.4 °F 36% 29.93 in 10.0 mi SSE 13.8 mph 18.4 mph N/A   Clear
12:35 AM 84.2 °F 83.0 °F 55.6 °F 37% 29.93 in 10.0 mi SSE 15.0 mph 20.7 mph N/A   Clear
12:55 AM 83.7 °F 82.8 °F 55.9 °F 39% 29.94 in 10.0 mi SSE 13.8 mph 18.4 mph N/A   Clear
1:15 AM 83.1 °F 82.4 °F 56.1 °F 40% 29.95 in 10.0 mi SSE 13.8 mph 19.6 mph N/A   Clear
1:35 AM 82.8 °F 82.1 °F 56.3 °F 40% 29.95 in 10.0 mi SSE 13.8 mph - N/A   Clear
1:55 AM 82.0 °F 81.6 °F 56.5 °F 41% 29.96 in 10.0 mi SE 11.5 mph - N/A   Clear
2:15 AM 81.3 °F 81.2 °F 56.7 °F 43% 29.97 in 10.0 mi SSE 11.5 mph - N/A   Clear
2:35 AM 80.8 °F 80.8 °F 56.7 °F 43% 29.97 in 10.0 mi SSE 12.7 mph 19.6 mph N/A   Clear
2:55 AM 80.2 °F 80.5 °F 57.0 °F 45% 29.98 in 10.0 mi SE 11.5 mph - N/A   Clear
3:15 AM 79.5 °F - 57.4 °F 47% 29.98 in 10.0 mi SE 16.1 mph - N/A   Clear
3:35 AM 78.8 °F - 57.7 °F 48% 29.99 in 10.0 mi SE 12.7 mph - N/A   Clear
3:55 AM 78.1 °F - 58.3 °F 50% 29.99 in 10.0 mi SE 10.4 mph - N/A   Clear
4:15 AM 77.5 °F - 59.2 °F 53% 30.00 in 10.0 mi SE 12.7 mph - N/A   Clear
4:35 AM 77.2 °F - 60.4 °F 56% 30.00 in 10.0 mi SE 12.7 mph - N/A   Clear
4:55 AM 76.6 °F - 61.3 °F 59% 30.01 in 10.0 mi SE 9.2 mph - N/A   Clear
5:15 AM 76.3 °F - 61.9 °F 61% 30.02 in 10.0 mi ESE 6.9 mph 10.4 mph N/A   Clear
5:35 AM 75.6 °F - 61.3 °F 61% 30.02 in 10.0 mi SE 9.2 mph - N/A   Clear
5:55 AM 74.7 °F - 62.1 °F 65% 30.02 in 10.0 mi SE 10.4 mph - N/A   Clear
6:15 AM 74.5 °F - 63.7 °F 69% 30.02 in 10.0 mi SE 10.4 mph - N/A   Clear
6:35 AM 74.1 °F - 64.2 °F 71% 30.03 in 10.0 mi SE 10.4 mph - N/A   Clear
6:55 AM 73.8 °F - 64.8 °F 73% 30.03 in 10.0 mi SE 9.2 mph - N/A   Clear
7:15 AM 73.8 °F - 65.1 °F 74% 30.03 in 10.0 mi SE 10.4 mph - N/A   Clear
7:35 AM 73.8 °F - 65.3 °F 75% 30.04 in 10.0 mi SE 10.4 mph - N/A   Clear
7:55 AM 74.5 °F - 65.3 °F 73% 30.04 in 10.0 mi SE 12.7 mph - N/A   Clear
8:15 AM 75.2 °F - 65.3 °F 71% 30.03 in 10.0 mi SE 12.7 mph - N/A   Clear
8:55 AM 77.2 °F - 64.0 °F 64% 30.06 in 10.0 mi SE 15.0 mph - N/A   Clear
9:15 AM 78.1 °F - 63.5 °F 61% 30.07 in 10.0 mi SSE 11.5 mph - N/A   Clear
9:35 AM 78.8 °F - 63.5 °F 59% 30.08 in 10.0 mi SSE 12.7 mph - N/A   Clear
9:55 AM 79.7 °F - 63.7 °F 58% 30.09 in 10.0 mi South 9.2 mph - N/A   Clear
10:15 AM 80.8 °F 82.2 °F 63.5 °F 56% 30.07 in 10.0 mi South 15.0 mph - N/A   Clear
10:35 AM 82.0 °F 83.3 °F 63.3 °F 53% 30.08 in 10.0 mi SSE 10.4 mph - N/A   Clear
10:55 AM 82.8 °F 84.0 °F 63.5 °F 52% 30.08 in 10.0 mi SE 10.4 mph - N/A   Clear
11:15 AM 83.7 °F 84.7 °F 63.0 °F 50% 30.09 in 10.0 mi SSE 9.2 mph - N/A   Clear
11:35 AM 84.6 °F 85.2 °F 62.2 °F 47% 30.10 in 10.0 mi SSE 9.2 mph - N/A   Clear
11:55 AM 86.2 °F 86.6 °F 61.7 °F 44% 30.10 in 10.0 mi SE 9.2 mph - N/A   Clear
12:15 PM 86.9 °F 87.0 °F 61.2 °F 42% 30.10 in 10.0 mi East 8.1 mph 16.1 mph N/A   Clear
12:35 PM 88.0 °F 87.6 °F 60.4 °F 39% 30.10 in 10.0 mi SE 11.5 mph 17.3 mph N/A   Clear
12:55 PM 88.7 °F 87.8 °F 58.8 °F 36% 30.10 in 10.0 mi ESE 11.5 mph 20.7 mph N/A   Clear
1:15 PM 90.1 °F 88.8 °F 57.7 °F 33% 30.09 in 10.0 mi SE 9.2 mph 19.6 mph N/A   Clear
1:35 PM 91.4 °F 89.9 °F 57.0 °F 31% 30.08 in 10.0 mi East 15.0 mph 21.9 mph N/A   Clear
1:55 PM 91.9 °F 90.6 °F 57.0 °F 31% 30.08 in 10.0 mi East 13.8 mph 23.0 mph N/A   Clear
2:15 PM 92.8 °F 91.1 °F 56.1 °F 29% 30.08 in 10.0 mi East 16.1 mph - N/A   Clear
2:35 PM 93.0 °F 91.1 °F 55.6 °F 28% 30.07 in 10.0 mi SE 11.5 mph 24.2 mph N/A   Clear
2:55 PM 93.0 °F 91.1 °F 55.2 °F 28% 30.06 in 10.0 mi East 9.2 mph 23.0 mph N/A   Clear
3:15 PM 93.2 °F 91.0 °F 54.7 °F 27% 30.06 in 10.0 mi East 12.7 mph 21.9 mph N/A   Clear
3:35 PM 93.7 °F 91.4 °F 54.1 °F 26% 30.06 in 10.0 mi SE 12.7 mph 19.6 mph N/A   Clear
3:55 PM 94.1 °F 91.9 °F 53.8 °F 26% 30.05 in 10.0 mi ESE 15.0 mph 20.7 mph N/A   Clear
4:15 PM 94.5 °F 92.1 °F 53.4 °F 25% 30.04 in 10.0 mi East 15.0 mph 24.2 mph N/A   Clear
4:55 PM 95.2 °F - 52.5 °F 24% 30.03 in 10.0 mi ESE 13.8 mph 20.7 mph N/A   Clear
5:35 PM 94.3 °F - 51.6 °F 23% 30.01 in 10.0 mi SE 12.7 mph 20.7 mph N/A   Clear
5:55 PM 93.9 °F - 51.4 °F 24% 30.01 in 10.0 mi ESE 12.7 mph 18.4 mph N/A   Clear
6:15 PM 94.6 °F - 51.1 °F 23% 30.01 in 10.0 mi East 11.5 mph 17.3 mph N/A   Clear
6:55 PM 94.3 °F - 50.7 °F 23% 30.02 in 10.0 mi ESE 9.2 mph - N/A   Clear
7:15 PM 93.7 °F - 50.9 °F 23% 30.03 in 10.0 mi East 8.1 mph - N/A   Clear
7:35 PM 92.5 °F - 51.1 °F 24% 30.04 in 10.0 mi East 15.0 mph 21.9 mph N/A Thunderstorm Clear
7:55 PM 91.4 °F 88.9 °F 53.2 °F 27% 30.04 in 10.0 mi East 25.3 mph 29.9 mph N/A Rain , Thunderstorm Light Thunderstorms and Rain
8:15 PM 84.7 °F 84.8 °F 60.4 °F 44% 29.99 in 10.0 mi SE 28.8 mph 40.3 mph N/A Rain Light Rain
8:55 PM 82.6 °F 82.5 °F 58.8 °F 44% 30.06 in 10.0 mi ESE 9.2 mph 21.9 mph N/A   Clear
9:15 PM 81.5 °F 81.4 °F 57.2 °F 43% 30.02 in 10.0 mi SSE 9.2 mph 18.4 mph N/A   Clear
9:35 PM 81.7 °F 81.3 °F 56.1 °F 41% 30.00 in 10.0 mi South 10.4 mph - N/A   Clear
9:55 PM 82.2 °F 81.6 °F 55.6 °F 40% 30.00 in 10.0 mi WSW 4.6 mph - N/A   Clear
10:15 PM 82.0 °F 81.5 °F 55.8 °F 40% 30.02 in 10.0 mi WNW 3.5 mph - N/A   Clear
11:15 PM 80.1 °F 80.8 °F 59.4 °F 49% 30.07 in 10.0 mi ENE 9.2 mph - N/A   Clear
11:55 PM 77.0 °F - 64.0 °F 64% 30.06 in 10.0 mi ENE 6.9 mph - N/A   Clear